| time (UTC) | temp C | wind direction | speed KPH | gust KPH | rain 1hr cm | rain 24hr cm | rain mn cm | humidity % | barometer mb |
| 20260506073217 | 15 | 68 | 4.8 | 11.3 | 0.00 | 0.00 | 0.00 | 77 | 1009.7 |
| 20260506072714 | 15 | 270 | 0.0 | 4.8 | 0.00 | 0.00 | 0.00 | 77 | 1010.0 |
| 20260506072211 | 15 | 279 | 3.2 | 8.0 | 0.00 | 0.00 | 0.00 | 77 | 1010.3 |
| 20260506071709 | 15 | 177 | 4.8 | 4.8 | 0.00 | 0.00 | 0.00 | 78 | 1010.2 |
| 20260506071207 | 15 | 169 | 0.0 | 6.4 | 0.00 | 0.00 | 0.00 | 77 | 1010.0 |
| 20260506070703 | 15 | 75 | 0.0 | 4.8 | 0.00 | 0.00 | 0.00 | 77 | 1010.4 |
| 20260506070200 | 15 | 162 | 1.6 | 9.7 | 0.00 | 0.00 | 0.00 | 77 | 1010.3 |
| 20260506062137 | 16 | 84 | 3.2 | 8.0 | 0.00 | 0.00 | 0.00 | 79 | 1010.0 |
| 20260506061633 | 16 | 344 | 3.2 | 6.4 | 0.00 | 0.00 | 0.00 | 79 | 1010.4 |
| 20260506061131 | 16 | 278 | 0.0 | 4.8 | 0.00 | 0.00 | 0.00 | 79 | 1010.3 |
| 20260506060629 | 16 | 355 | 3.2 | 8.0 | 0.00 | 0.00 | 0.00 | 79 | 1010.1 |
| 20260506060126 | 16 | 81 | 0.0 | 8.0 | 0.00 | 0.00 | 0.00 | 80 | 1010.3 |
| 20260506051058 | 16 | 159 | 4.8 | 6.4 | 0.00 | 0.00 | 0.00 | 79 | 1010.3 |
| 20260506050555 | 16 | 16 | 3.2 | 4.8 | 0.00 | 0.00 | 0.00 | 79 | 1010.2 |
| 20260506045046 | 17 | 30 | 0.0 | 6.4 | 0.00 | 0.00 | 0.00 | 79 | 1010.3 |
| 20260506044544 | 17 | 340 | 4.8 | 8.0 | 0.00 | 0.00 | 0.00 | 79 | 1009.9 |
| 20260506044041 | 17 | 29 | 0.0 | 11.3 | 0.00 | 0.00 | 0.00 | 79 | 1010.3 |
| 20260506043538 | 17 | 6 | 4.8 | 11.3 | 0.00 | 0.00 | 0.00 | 78 | 1010.3 |
| 20260506043036 | 17 | 3 | 4.8 | 11.3 | 0.00 | 0.00 | 0.00 | 78 | 1010.2 |
| 20260506042535 | 17 | 254 | 0.0 | 6.4 | 0.00 | 0.00 | 0.00 | 79 | 1010.2 |
| 20260506042032 | 17 | 233 | 4.8 | 6.4 | 0.00 | 0.00 | 0.00 | 78 | 1010.1 |
| 20260506041531 | 17 | 276 | 4.8 | 8.0 | 0.00 | 0.00 | 0.00 | 79 | 1009.9 |
| 20260506041027 | 17 | 71 | 4.8 | 14.5 | 0.00 | 0.00 | 0.00 | 78 | 1009.6 |
| 20260506040525 | 17 | 7 | 0.0 | 9.7 | 0.00 | 0.00 | 0.00 | 79 | 1009.8 |
| 20260506040021 | 18 | 90 | 4.8 | 6.4 | 0.00 | 0.00 | 0.00 | 78 | 1009.8 |
| 20260506035518 | 18 | 105 | 1.6 | 8.0 | 0.00 | 0.00 | 0.00 | 78 | 1009.5 |
| 20260506035015 | 18 | 82 | 4.8 | 9.7 | 0.00 | 0.00 | 0.00 | 78 | 1009.5 |
| 20260506034512 | 18 | 85 | 3.2 | 6.4 | 0.00 | 0.00 | 0.00 | 78 | 1009.3 |
| 20260506034009 | 18 | 90 | 6.4 | 9.7 | 0.00 | 0.00 | 0.00 | 78 | 1009.0 |
| 20260506033507 | 18 | 159 | 3.2 | 4.8 | 0.00 | 0.00 | 0.00 | 78 | 1009.2 |
| 20260506033004 | 18 | 84 | 4.8 | 11.3 | 0.00 | 0.00 | 0.00 | 78 | 1009.0 |
| 20260506032501 | 19 | 195 | 3.2 | 3.2 | 0.00 | 0.00 | 0.00 | 77 | 1009.0 |
| 20260506031956 | 19 | 18 | 0.0 | 6.4 | 0.00 | 0.00 | 0.00 | 77 | 1008.8 |
| 20260506031455 | 19 | 74 | 3.2 | 6.4 | 0.00 | 0.00 | 0.00 | 77 | 1008.9 |
| 20260506030952 | 20 | 25 | 0.0 | 11.3 | 0.00 | 0.00 | 0.00 | 77 | 1009.1 |
| 20260506030450 | 20 | 315 | 3.2 | 6.4 | 0.00 | 0.00 | 0.00 | 76 | 1008.7 |
| 20260506025946 | 20 | 75 | 4.8 | 4.8 | 0.00 | 0.00 | 0.00 | 76 | 1008.8 |
| 20260506025443 | 20 | 174 | 0.0 | 19.3 | 0.00 | 0.00 | 0.00 | 76 | 1008.6 |
| 20260506024940 | 20 | 82 | 0.0 | 8.0 | 0.00 | 0.00 | 0.00 | 75 | 1008.7 |
| 20260506024437 | 20 | 186 | 1.6 | 8.0 | 0.00 | 0.00 | 0.00 | 75 | 1008.6 |
| 20260506023932 | 20 | 41 | 3.2 | 6.4 | 0.00 | 0.00 | 0.00 | 75 | 1008.3 |
| 20260506023429 | 20 | 180 | 0.0 | 9.7 | 0.00 | 0.00 | 0.00 | 75 | 1008.1 |
| 20260506022926 | 20 | 80 | 4.8 | 8.0 | 0.00 | 0.00 | 0.00 | 75 | 1008.2 |
| 20260506022424 | 20 | 21 | 3.2 | 4.8 | 0.00 | 0.00 | 0.00 | 74 | 1007.8 |
| 20260506021922 | 20 | 102 | 9.7 | 9.7 | 0.00 | 0.00 | 0.00 | 74 | 1007.7 |
| 20260506021419 | 20 | 90 | 3.2 | 8.0 | 0.00 | 0.00 | 0.00 | 73 | 1007.3 |
| 20260506020916 | 21 | 8 | 0.0 | 8.0 | 0.00 | 0.00 | 0.00 | 73 | 1007.7 |
| 20260506020414 | 21 | 151 | 0.0 | 8.0 | 0.00 | 0.00 | 0.00 | 73 | 1007.7 |
| 20260506015910 | 21 | 283 | 0.0 | 6.4 | 0.00 | 0.00 | 0.00 | 72 | 1007.2 |
| 20260506015408 | 21 | 122 | 0.0 | 8.0 | 0.00 | 0.00 | 0.00 | 72 | 1006.8 |
| 20260506014904 | 21 | 2 | 6.4 | 6.4 | 0.00 | 0.00 | 0.00 | 72 | 1006.9 |
| 20260506014401 | 21 | 301 | 0.0 | 4.8 | 0.00 | 0.00 | 0.00 | 72 | 1006.6 |
| 20260506013858 | 21 | 77 | 0.0 | 3.2 | 0.00 | 0.00 | 0.00 | 72 | 1007.0 |
| 20260506013356 | 21 | 249 | 1.6 | 8.0 | 0.00 | 0.00 | 0.00 | 72 | 1006.6 |
| 20260506012852 | 21 | 270 | 0.0 | 6.4 | 0.00 | 0.00 | 0.00 | 72 | 1006.9 |
| 20260506012349 | 21 | 8 | 0.0 | 8.0 | 0.00 | 0.00 | 0.00 | 71 | 1006.5 |
| 20260506011846 | 22 | 263 | 1.6 | 4.8 | 0.00 | 0.00 | 0.00 | 71 | 1006.7 |
| 20260506011343 | 22 | 187 | 0.0 | 6.4 | 0.00 | 0.00 | 0.00 | 71 | 1006.6 |
| 20260506010840 | 22 | 84 | 0.0 | 6.4 | 0.00 | 0.00 | 0.00 | 70 | 1006.7 |
| 20260506010338 | 22 | 0 | 0.0 | 6.4 | 0.00 | 0.00 | 0.00 | 69 | 1006.6 |
| 20260506005835 | 22 | 283 | 1.6 | 6.4 | 0.00 | 0.00 | 0.00 | 69 | 1006.5 |
| 20260506005331 | 22 | 90 | 0.0 | 6.4 | 0.00 | 0.00 | 0.00 | 68 | 1006.6 |
| 20260506004827 | 23 | 98 | 1.6 | 4.8 | 0.00 | 0.00 | 0.00 | 69 | 1006.1 |
| 20260506004325 | 23 | 90 | 0.0 | 8.0 | 0.00 | 0.00 | 0.00 | 68 | 1005.8 |
| 20260506003821 | 23 | 192 | 0.0 | 4.8 | 0.00 | 0.00 | 0.00 | 68 | 1005.5 |
| 20260506003318 | 23 | 112 | 0.0 | 6.4 | 0.00 | 0.00 | 0.00 | 67 | 1005.8 |
| 20260506002814 | 23 | 84 | 4.8 | 4.8 | 0.00 | 0.00 | 0.00 | 67 | 1005.7 |
| 20260506002311 | 23 | 90 | 3.2 | 6.4 | 0.00 | 0.00 | 0.00 | 67 | 1005.4 |
| 20260506001806 | 24 | 37 | 0.0 | 6.4 | 0.00 | 0.00 | 0.00 | 67 | 1005.4 |
| 20260506001304 | 24 | 76 | 0.0 | 6.4 | 0.00 | 0.00 | 0.00 | 67 | 1005.4 |
| 20260506000801 | 25 | 277 | 6.4 | 8.0 | 0.00 | 0.00 | 0.00 | 66 | 1005.5 |
| 20260506000258 | 25 | 17 | 4.8 | 8.0 | 0.00 | 0.00 | 0.00 | 66 | 1005.4 |
| 20260505235755 | 25 | 56 | 3.2 | 6.4 | 0.00 | 0.00 | 0.00 | 65 | 1005.1 |
| 20260505235253 | 26 | 78 | 0.0 | 8.0 | 0.00 | 0.00 | 0.00 | 65 | 1005.3 |
| 20260505234749 | 26 | 83 | 0.0 | 8.0 | 0.00 | 0.00 | 0.00 | 64 | 1005.3 |
| 20260505234247 | 26 | 254 | 1.6 | 9.7 | 0.00 | 0.00 | 0.00 | 64 | 1005.0 |
| 20260505233743 | 26 | 345 | 0.0 | 6.4 | 0.00 | 0.00 | 0.00 | 63 | 1005.0 |
| 20260505233241 | 26 | 245 | 0.0 | 12.9 | 0.00 | 0.00 | 0.00 | 63 | 1004.9 |
| 20260505232738 | 27 | 321 | 6.4 | 6.4 | 0.00 | 0.00 | 0.00 | 63 | 1004.9 |
| 20260505232236 | 27 | 233 | 4.8 | 8.0 | 0.00 | 0.00 | 0.00 | 62 | 1004.9 |
| 20260505231732 | 27 | 270 | 0.0 | 8.0 | 0.00 | 0.00 | 0.00 | 62 | 1004.9 |
| 20260505231231 | 28 | 83 | 4.8 | 4.8 | 0.00 | 0.00 | 0.00 | 61 | 1004.8 |
| 20260505230729 | 28 | 320 | 8.0 | 8.0 | 0.00 | 0.00 | 0.00 | 60 | 1004.8 |
| 20260505230225 | 28 | 90 | 4.8 | 11.3 | 0.00 | 0.00 | 0.00 | 59 | 1004.7 |
| 20260505225722 | 28 | 270 | 0.0 | 6.4 | 0.00 | 0.00 | 0.00 | 58 | 1004.5 |
| 20260505225219 | 28 | 293 | 0.0 | 8.0 | 0.00 | 0.00 | 0.00 | 58 | 1004.4 |
| 20260505224714 | 28 | 270 | 6.4 | 8.0 | 0.00 | 0.00 | 0.00 | 57 | 1004.1 |
| 20260505224212 | 29 | 234 | 1.6 | 8.0 | 0.00 | 0.00 | 0.00 | 56 | 1004.3 |
| 20260505223710 | 29 | 323 | 0.0 | 6.4 | 0.00 | 0.00 | 0.00 | 55 | 1004.2 |
| 20260505223205 | 29 | 294 | 4.8 | 8.0 | 0.00 | 0.00 | 0.00 | 53 | 1004.4 |
| 20260505222702 | 30 | 351 | 3.2 | 11.3 | 0.00 | 0.00 | 0.00 | 52 | 1004.1 |
| 20260505222158 | 30 | 270 | 4.8 | 9.7 | 0.00 | 0.00 | 0.00 | 53 | 1004.0 |
| 20260505221655 | 30 | 285 | 4.8 | 9.7 | 0.00 | 0.00 | 0.00 | 52 | 1003.9 |
| 20260505221152 | 30 | 319 | 3.2 | 4.8 | 0.00 | 0.00 | 0.00 | 52 | 1003.8 |
| 20260505220649 | 30 | 188 | 0.0 | 4.8 | 0.00 | 0.00 | 0.00 | 50 | 1003.8 |
| 20260505220147 | 31 | 60 | 1.6 | 4.8 | 0.00 | 0.00 | 0.00 | 52 | 1003.6 |
| 20260505215644 | 31 | 130 | 6.4 | 6.4 | 0.00 | 0.00 | 0.00 | 51 | 1003.5 |
| 20260505215142 | 31 | 270 | 4.8 | 8.0 | 0.00 | 0.00 | 0.00 | 53 | 1003.8 |
| 20260505214640 | 32 | 270 | 1.6 | 3.2 | 0.00 | 0.00 | 0.00 | 55 | 1003.7 |
| 20260505214137 | 32 | 246 | 3.2 | 4.8 | 0.00 | 0.00 | 0.00 | 54 | 1003.9 |
| 20260505213634 | 32 | 270 | 4.8 | 4.8 | 0.00 | 0.00 | 0.00 | 54 | 1003.8 |
| 20260505213131 | 32 | 331 | 0.0 | 6.4 | 0.00 | 0.00 | 0.00 | 54 | 1003.9 |
| 20260505212626 | 32 | 188 | 0.0 | 1.6 | 0.00 | 0.00 | 0.00 | 56 | 1003.8 |
| 20260505212125 | 32 | 270 | 1.6 | 6.4 | 0.00 | 0.00 | 0.00 | 54 | 1003.7 |
| 20260505211621 | 32 | 228 | 3.2 | 4.8 | 0.00 | 0.00 | 0.00 | 57 | 1003.9 |
| 20260505211119 | 31 | 255 | 0.0 | 6.4 | 0.00 | 0.00 | 0.00 | 56 | 1004.2 |
| 20260505210615 | 32 | 297 | 1.6 | 6.4 | 0.00 | 0.00 | 0.00 | 57 | 1004.1 |
| 20260505210112 | 32 | 221 | 3.2 | 8.0 | 0.00 | 0.00 | 0.00 | 57 | 1003.9 |
| 20260505205609 | 31 | 309 | 3.2 | 8.0 | 0.00 | 0.00 | 0.00 | 58 | 1004.4 |
| 20260505205107 | 31 | 270 | 3.2 | 9.7 | 0.00 | 0.00 | 0.00 | 56 | 1004.4 |
| 20260505204604 | 31 | 195 | 1.6 | 4.8 | 0.00 | 0.00 | 0.00 | 58 | 1004.3 |
| 20260505204101 | 32 | 270 | 1.6 | 9.7 | 0.00 | 0.00 | 0.00 | 59 | 1004.2 |
| 20260505203558 | 31 | 263 | 1.6 | 4.8 | 0.00 | 0.00 | 0.00 | 59 | 1004.3 |
| 20260505203055 | 31 | 277 | 8.0 | 11.3 | 0.00 | 0.00 | 0.00 | 58 | 1004.2 |
| 20260505202551 | 32 | 180 | 0.0 | 3.2 | 0.00 | 0.00 | 0.00 | 59 | 1004.5 |
| 20260505202047 | 32 | 270 | 3.2 | 9.7 | 0.00 | 0.00 | 0.00 | 59 | 1004.8 |
| 20260505201544 | 31 | 270 | 4.8 | 9.7 | 0.00 | 0.00 | 0.00 | 60 | 1004.6 |
| 20260505201042 | 31 | 270 | 3.2 | 3.2 | 0.00 | 0.00 | 0.00 | 59 | 1004.7 |
| 20260505200539 | 31 | 286 | 3.2 | 4.8 | 0.00 | 0.00 | 0.00 | 61 | 1004.8 |
| 20260505200036 | 31 | 246 | 4.8 | 9.7 | 0.00 | 0.00 | 0.00 | 59 | 1004.9 |
| 20260505195532 | 31 | 240 | 0.0 | 11.3 | 0.00 | 0.00 | 0.00 | 61 | 1004.7 |
| 20260505195030 | 31 | 285 | 0.0 | 8.0 | 0.00 | 0.00 | 0.00 | 62 | 1004.5 |
| 20260505194527 | 30 | 294 | 1.6 | 6.4 | 0.00 | 0.00 | 0.00 | 63 | 1004.8 |
| 20260505194022 | 30 | 270 | 0.0 | 12.9 | 0.00 | 0.00 | 0.00 | 62 | 1004.8 |
| 20260505193520 | 30 | 306 | 1.6 | 8.0 | 0.00 | 0.00 | 0.00 | 62 | 1004.7 |
| 20260505193017 | 30 | 295 | 0.0 | 9.7 | 0.00 | 0.00 | 0.00 | 63 | 1004.9 |
| 20260505192516 | 30 | 270 | 0.0 | 9.7 | 0.00 | 0.00 | 0.00 | 64 | 1005.0 |
| 20260505192013 | 30 | 236 | 3.2 | 4.8 | 0.00 | 0.00 | 0.00 | 64 | 1004.8 |
| 20260505191511 | 30 | 270 | 4.8 | 12.9 | 0.00 | 0.00 | 0.00 | 64 | 1005.0 |
| 20260505191008 | 30 | 253 | 3.2 | 8.0 | 0.00 | 0.00 | 0.00 | 66 | 1004.8 |
| 20260505190503 | 29 | 262 | 1.6 | 4.8 | 0.00 | 0.00 | 0.00 | 66 | 1004.6 |
| 20260505185958 | 29 | 201 | 3.2 | 4.8 | 0.00 | 0.00 | 0.00 | 66 | 1004.7 |
| 20260505185456 | 29 | 255 | 8.0 | 11.3 | 0.00 | 0.00 | 0.00 | 67 | 1004.8 |
| 20260505184952 | 29 | 240 | 0.0 | 11.3 | 0.00 | 0.00 | 0.00 | 67 | 1004.8 |
| 20260505184449 | 29 | 270 | 0.0 | 3.2 | 0.00 | 0.00 | 0.00 | 68 | 1004.8 |
| 20260505183945 | 28 | 265 | 3.2 | 8.0 | 0.00 | 0.00 | 0.00 | 68 | 1005.0 |
| 20260505183442 | 28 | 270 | 0.0 | 11.3 | 0.00 | 0.00 | 0.00 | 69 | 1005.0 |
| 20260505182939 | 28 | 262 | 4.8 | 8.0 | 0.00 | 0.00 | 0.00 | 69 | 1005.3 |
| 20260505182436 | 28 | 216 | 4.8 | 8.0 | 0.00 | 0.00 | 0.00 | 69 | 1005.1 |
| 20260505181932 | 28 | 201 | 3.2 | 12.9 | 0.00 | 0.00 | 0.00 | 69 | 1005.0 |
| 20260505181430 | 28 | 277 | 4.8 | 4.8 | 0.00 | 0.00 | 0.00 | 69 | 1005.0 |
| 20260505180927 | 28 | 262 | 4.8 | 14.5 | 0.00 | 0.00 | 0.00 | 68 | 1005.3 |
| 20260505180423 | 28 | 257 | 6.4 | 20.9 | 0.00 | 0.00 | 0.00 | 68 | 1005.0 |
| 20260505175919 | 28 | 270 | 3.2 | 9.7 | 0.00 | 0.00 | 0.00 | 69 | 1005.2 |
| 20260505175416 | 28 | 217 | 0.0 | 4.8 | 0.00 | 0.00 | 0.00 | 69 | 1005.1 |
| 20260505174912 | 28 | 270 | 8.0 | 16.1 | 0.00 | 0.00 | 0.00 | 68 | 1005.0 |
| 20260505174410 | 28 | 278 | 1.6 | 8.0 | 0.00 | 0.00 | 0.00 | 68 | 1004.9 |
| 20260505173906 | 28 | 225 | 3.2 | 6.4 | 0.00 | 0.00 | 0.00 | 67 | 1005.2 |
| 20260505173402 | 28 | 268 | 9.7 | 12.9 | 0.00 | 0.00 | 0.00 | 69 | 1005.0 |
| 20260505172859 | 28 | 194 | 0.0 | 14.5 | 0.00 | 0.00 | 0.00 | 71 | 1005.0 |
| 20260505172357 | 27 | 270 | 1.6 | 11.3 | 0.00 | 0.00 | 0.00 | 70 | 1005.0 |
| 20260505171857 | 28 | 262 | 4.8 | 14.5 | 0.00 | 0.00 | 0.00 | 70 | 1005.0 |
| 20260505171353 | 28 | 277 | 1.6 | 4.8 | 0.00 | 0.00 | 0.00 | 70 | 1005.2 |
| 20260505170850 | 28 | 270 | 0.0 | 4.8 | 0.00 | 0.00 | 0.00 | 72 | 1005.0 |
| 20260505170347 | 28 | 233 | 3.2 | 6.4 | 0.00 | 0.00 | 0.00 | 72 | 1005.3 |
| 20260505165842 | 27 | 276 | 0.0 | 8.0 | 0.00 | 0.00 | 0.00 | 72 | 1005.0 |
| 20260505165338 | 27 | 263 | 4.8 | 9.7 | 0.00 | 0.00 | 0.00 | 72 | 1005.3 |
| 20260505164834 | 27 | 270 | 4.8 | 9.7 | 0.00 | 0.00 | 0.00 | 72 | 1005.2 |
| 20260505164331 | 27 | 258 | 4.8 | 4.8 | 0.00 | 0.00 | 0.00 | 73 | 1005.0 |
| 20260505163829 | 27 | 265 | 3.2 | 8.0 | 0.00 | 0.00 | 0.00 | 73 | 1005.1 |
| 20260505163328 | 26 | 109 | 3.2 | 11.3 | 0.00 | 0.00 | 0.00 | 73 | 1004.9 |
| 20260505162826 | 26 | 243 | 8.0 | 9.7 | 0.00 | 0.00 | 0.00 | 74 | 1005.0 |
| 20260505162322 | 26 | 210 | 4.8 | 11.3 | 0.00 | 0.00 | 0.00 | 74 | 1005.0 |
| 20260505161819 | 27 | 187 | 3.2 | 6.4 | 0.00 | 0.00 | 0.00 | 75 | 1005.1 |
| 20260505161316 | 26 | 83 | 1.6 | 8.0 | 0.00 | 0.00 | 0.00 | 76 | 1004.9 |
| 20260505160814 | 26 | 243 | 0.0 | 8.0 | 0.00 | 0.00 | 0.00 | 77 | 1005.2 |
| 20260505160312 | 26 | 293 | 3.2 | 6.4 | 0.00 | 0.00 | 0.00 | 77 | 1004.9 |
| 20260505153250 | 25 | 273 | 4.8 | 14.5 | 0.00 | 0.00 | 0.00 | 79 | 1005.0 |
| 20260505152747 | 25 | 270 | 3.2 | 6.4 | 0.00 | 0.00 | 0.00 | 79 | 1004.9 |
| 20260505152244 | 25 | 262 | 4.8 | 6.4 | 0.00 | 0.00 | 0.00 | 79 | 1004.9 |
| 20260505151744 | 25 | 246 | 3.2 | 8.0 | 0.00 | 0.00 | 0.00 | 79 | 1005.0 |
| 20260505151242 | 25 | 263 | 1.6 | 6.4 | 0.00 | 0.00 | 0.00 | 80 | 1004.8 |
| 20260505150738 | 25 | 198 | 6.4 | 6.4 | 0.00 | 0.00 | 0.00 | 80 | 1004.9 |
| 20260505150236 | 24 | 240 | 3.2 | 6.4 | 0.00 | 0.00 | 0.00 | 81 | 1005.1 |
| 20260505140206 | 22 | 236 | 4.8 | 9.7 | 0.00 | 0.00 | 0.00 | 85 | 1004.6 |
| 20260505130130 | 21 | 254 | 8.0 | 8.0 | 0.00 | 0.00 | 0.00 | 88 | 1004.5 |
| 20260505124619 | 21 | 198 | 1.6 | 6.4 | 0.00 | 0.00 | 0.00 | 88 | 1004.3 |
| 20260505124115 | 21 | 202 | 4.8 | 16.1 | 0.00 | 0.00 | 0.00 | 88 | 1004.4 |
| 20260505123612 | 21 | 175 | 0.0 | 6.4 | 0.00 | 0.00 | 0.00 | 88 | 1004.5 |
| 20260505123108 | 21 | 279 | 0.0 | 3.2 | 0.00 | 0.00 | 0.00 | 88 | 1004.1 |
| 20260505122605 | 21 | 168 | 3.2 | 8.0 | 0.00 | 0.00 | 0.00 | 88 | 1004.2 |
| 20260505122102 | 21 | 101 | 3.2 | 8.0 | 0.00 | 0.00 | 0.00 | 88 | 1004.1 |
| 20260505121559 | 21 | 219 | 4.8 | 6.4 | 0.00 | 0.00 | 0.00 | 88 | 1004.1 |
| 20260505121056 | 21 | 223 | 8.0 | 8.0 | 0.00 | 0.00 | 0.00 | 89 | 1004.1 |
| 20260505120552 | 21 | 83 | 1.6 | 4.8 | 0.00 | 0.00 | 0.00 | 89 | 1003.9 |
| 20260505120048 | 21 | 255 | 4.8 | 9.7 | 0.00 | 0.00 | 0.00 | 89 | 1004.0 |
| 20260505115542 | 21 | 259 | 3.2 | 9.7 | 0.00 | 0.00 | 0.00 | 89 | 1004.0 |
| 20260505115040 | 21 | 255 | 1.6 | 9.7 | 0.00 | 0.00 | 0.00 | 89 | 1004.2 |
| 20260505114537 | 21 | 191 | 0.0 | 8.0 | 0.00 | 0.00 | 0.00 | 88 | 1003.9 |
| 20260505114033 | 21 | 249 | 4.8 | 6.4 | 0.00 | 0.00 | 0.00 | 89 | 1003.9 |
| 20260505113530 | 21 | 180 | 1.6 | 8.0 | 0.00 | 0.00 | 0.00 | 88 | 1004.0 |
| 20260505113026 | 21 | 186 | 0.0 | 4.8 | 0.00 | 0.00 | 0.00 | 89 | 1003.9 |
| 20260505112522 | 21 | 206 | 0.0 | 4.8 | 0.00 | 0.00 | 0.00 | 89 | 1003.9 |
| 20260505112021 | 21 | 262 | 0.0 | 8.0 | 0.00 | 0.00 | 0.00 | 89 | 1003.8 |
| 20260505111514 | 21 | 270 | 4.8 | 8.0 | 0.00 | 0.00 | 0.00 | 89 | 1003.8 |
| 20260505111010 | 21 | 188 | 0.0 | 4.8 | 0.00 | 0.00 | 0.00 | 89 | 1003.8 |
| 20260505110507 | 21 | 257 | 0.0 | 6.4 | 0.00 | 0.00 | 0.00 | 88 | 1004.2 |
| 20260505101940 | 21 | 217 | 3.2 | 9.7 | 0.00 | 0.00 | 0.00 | 86 | 1003.7 |
| 20260505101438 | 21 | 264 | 1.6 | 20.9 | 0.00 | 0.00 | 0.00 | 86 | 1003.9 |
| 20260505100934 | 21 | 278 | 3.2 | 8.0 | 0.00 | 0.00 | 0.00 | 86 | 1004.0 |
| 20260505100431 | 21 | 239 | 4.8 | 8.0 | 0.00 | 0.00 | 0.00 | 86 | 1004.2 |
| 20260505095927 | 21 | 261 | 4.8 | 4.8 | 0.00 | 0.00 | 0.00 | 86 | 1004.1 |
| 20260505095424 | 21 | 215 | 0.0 | 6.4 | 0.00 | 0.00 | 0.00 | 86 | 1004.3 |
| 20260505094920 | 22 | 270 | 1.6 | 8.0 | 0.00 | 0.00 | 0.00 | 86 | 1004.1 |
| 20260505094418 | 22 | 270 | 0.0 | 3.2 | 0.00 | 0.00 | 0.00 | 86 | 1004.1 |
| 20260505093913 | 22 | 180 | 0.0 | 8.0 | 0.00 | 0.00 | 0.00 | 85 | 1003.8 |
| 20260505093410 | 22 | 180 | 0.0 | 8.0 | 0.00 | 0.00 | 0.00 | 85 | 1004.0 |
| 20260505092908 | 22 | 180 | 0.0 | 4.8 | 0.00 | 0.00 | 0.00 | 85 | 1003.9 |
| 20260505092406 | 22 | 196 | 3.2 | 11.3 | 0.00 | 0.00 | 0.00 | 85 | 1004.0 |
| 20260505091903 | 22 | 261 | 3.2 | 9.7 | 0.00 | 0.00 | 0.00 | 85 | 1004.0 |
| 20260505091400 | 22 | 254 | 4.8 | 4.8 | 0.00 | 0.00 | 0.00 | 85 | 1004.2 |
| 20260505090858 | 22 | 166 | 3.2 | 4.8 | 0.00 | 0.00 | 0.00 | 85 | 1004.2 |
| 20260505090356 | 22 | 233 | 4.8 | 11.3 | 0.00 | 0.00 | 0.00 | 85 | 1004.3 |
| 20260505085853 | 22 | 253 | 3.2 | 9.7 | 0.00 | 0.00 | 0.00 | 85 | 1004.5 |
| 20260505085351 | 22 | 254 | 3.2 | 8.0 | 0.00 | 0.00 | 0.00 | 85 | 1004.3 |
| 20260505084849 | 22 | 174 | 1.6 | 4.8 | 0.00 | 0.00 | 0.00 | 85 | 1004.3 |
| 20260505084347 | 22 | 188 | 0.0 | 8.0 | 0.00 | 0.00 | 0.00 | 84 | 1004.4 |
| 20260505083844 | 22 | 241 | 3.2 | 4.8 | 0.00 | 0.00 | 0.00 | 84 | 1004.5 |
| 20260505083342 | 22 | 270 | 3.2 | 8.0 | 0.00 | 0.00 | 0.00 | 84 | 1004.7 |
| 20260505082838 | 22 | 254 | 1.6 | 3.2 | 0.00 | 0.00 | 0.00 | 84 | 1004.4 |
| 20260505082334 | 22 | 265 | 6.4 | 9.7 | 0.00 | 0.00 | 0.00 | 83 | 1004.3 |
| 20260505081831 | 22 | 243 | 4.8 | 8.0 | 0.00 | 0.00 | 0.00 | 83 | 1004.4 |
| 20260505081327 | 22 | 97 | 0.0 | 4.8 | 0.00 | 0.00 | 0.00 | 83 | 1004.3 |
| 20260505080824 | 22 | 246 | 0.0 | 3.2 | 0.00 | 0.00 | 0.00 | 83 | 1004.3 |
| 20260505080320 | 22 | 175 | 0.0 | 12.9 | 0.00 | 0.00 | 0.00 | 83 | 1004.4 |
| 20260505075815 | 22 | 248 | 3.2 | 8.0 | 0.00 | 0.00 | 0.00 | 82 | 1004.6 |